Location: Unspecified
(0.0000°N, 0.0000°E)
Time: 06:33:04
(UTC+00:00)

Vanguard 2 - Pass Details

Date: 28 November 2019
Orbit: 553 x 2938 km, 32.9° (Epoch: 10 December)

Event Time Altitude Azimuth Distance (km) Brightness Sun altitude
Rises 11:12:37 0° 331° (NNW) 4,127 11.0 67.0°
Reaches altitude 10° 11:18:51 10° 8° (N) 2,528 10.1 67.6°
Maximum altitude 11:19:52 10° 18° (NNE) 2,404 10.0 67.6°
Drops below altitude 10° 11:20:50 10° 29° (NNE) 2,348 10.0 67.7°
Sets 11:25:20 0° 72° (ENE) 2,921 10.5 68.0°
